TimeCST,TemperatureF,Dew PointF,Humidity,Sea Level PressureIn,VisibilityMPH,Wind Direction,Wind SpeedMPH,Gust SpeedMPH,PrecipitationIn,Events,Conditions,WindDirDegrees,DateUTC
12:15 AM,30.2,17.6,60,30.12,10.0,Calm,Calm,-,N/A,,Mostly Cloudy,0,2013-03-04 06:15:00
12:35 AM,30.2,17.6,60,30.12,10.0,ESE,3.5,-,N/A,,Overcast,110,2013-03-04 06:35:00
12:55 AM,30.2,17.6,60,30.12,10.0,Calm,Calm,-,N/A,,Overcast,0,2013-03-04 06:55:00
1:15 AM,30.2,17.6,60,30.12,10.0,ESE,3.5,-,N/A,,Overcast,120,2013-03-04 07:15:00
1:35 AM,30.2,15.8,55,30.12,10.0,ESE,3.5,-,N/A,,Overcast,120,2013-03-04 07:35:00
1:55 AM,30.2,15.8,55,30.12,10.0,SE,4.6,-,N/A,,Overcast,130,2013-03-04 07:55:00
2:15 AM,32.0,15.8,51,30.13,10.0,SE,4.6,-,N/A,,Overcast,140,2013-03-04 08:15:00
2:35 AM,32.0,15.8,51,30.12,10.0,SE,3.5,-,N/A,,Overcast,130,2013-03-04 08:35:00
2:55 AM,32.0,15.8,51,30.12,10.0,SSE,4.6,-,N/A,,Overcast,160,2013-03-04 08:55:00
3:15 AM,32.0,15.8,51,30.11,10.0,SE,6.9,-,N/A,,Overcast,140,2013-03-04 09:15:00
3:35 AM,32.0,15.8,51,30.11,10.0,SE,5.8,-,N/A,,Overcast,130,2013-03-04 09:35:00
3:55 AM,32.0,15.8,51,30.11,10.0,SE,5.8,-,N/A,,Overcast,130,2013-03-04 09:55:00
4:15 AM,32.0,15.8,51,30.11,10.0,ESE,8.1,-,N/A,,Overcast,120,2013-03-04 10:15:00
4:35 AM,32.0,17.6,55,30.11,10.0,ESE,6.9,-,N/A,,Overcast,110,2013-03-04 10:35:00
4:55 AM,32.0,15.8,51,30.10,10.0,ESE,8.1,-,N/A,,Overcast,110,2013-03-04 10:55:00
5:15 AM,32.0,15.8,51,30.10,10.0,ESE,8.1,-,N/A,,Overcast,120,2013-03-04 11:15:00
5:35 AM,32.0,15.8,51,30.10,10.0,SE,6.9,-,N/A,,Overcast,140,2013-03-04 11:35:00
5:55 AM,32.0,15.8,51,30.10,10.0,ESE,9.2,-,N/A,,Overcast,110,2013-03-04 11:55:00
6:15 AM,32.0,15.8,51,30.10,10.0,ESE,6.9,-,N/A,,Overcast,120,2013-03-04 12:15:00
6:35 AM,32.0,15.8,51,30.10,10.0,ESE,8.1,-,N/A,,Overcast,120,2013-03-04 12:35:00
6:55 AM,32.0,15.8,51,30.09,10.0,ESE,9.2,-,N/A,,Overcast,120,2013-03-04 12:55:00
7:15 AM,32.0,15.8,51,30.09,10.0,ESE,9.2,-,N/A,,Overcast,120,2013-03-04 13:15:00
7:55 AM,33.8,15.8,48,30.09,10.0,SE,11.5,-,N/A,,Scattered Clouds,140,2013-03-04 13:55:00
8:15 AM,33.8,17.6,52,30.09,10.0,SSE,11.5,-,N/A,,Partly Cloudy,150,2013-03-04 14:15:00
8:35 AM,33.8,17.6,52,30.09,10.0,SE,11.5,-,N/A,,Scattered Clouds,140,2013-03-04 14:35:00
8:55 AM,35.6,17.6,48,30.07,10.0,SE,8.1,-,N/A,,Mostly Cloudy,140,2013-03-04 14:55:00
9:15 AM,37.4,19.4,48,30.08,10.0,SE,10.4,-,N/A,,Mostly Cloudy,140,2013-03-04 15:15:00
9:35 AM,37.4,19.4,48,30.07,10.0,SE,11.5,19.6,N/A,,Mostly Cloudy,140,2013-03-04 15:35:00
9:55 AM,39.2,21.2,49,30.06,10.0,SE,12.7,17.3,N/A,,Scattered Clouds,130,2013-03-04 15:55:00
10:15 AM,37.4,19.4,48,30.04,10.0,SE,10.4,19.6,N/A,,Overcast,130,2013-03-04 16:15:00
10:35 AM,39.2,21.2,49,30.03,10.0,ESE,12.7,18.4,N/A,,Overcast,110,2013-03-04 16:35:00
11:15 AM,42.8,23.0,46,30.01,10.0,SE,16.1,20.7,N/A,,Scattered Clouds,130,2013-03-04 17:15:00
11:35 AM,42.8,23.0,46,30.00,10.0,ESE,16.1,21.9,N/A,,Clear,120,2013-03-04 17:35:00
12:15 PM,44.6,23.0,43,29.97,10.0,SSE,15.0,21.9,N/A,,Partly Cloudy,150,2013-03-04 18:15:00
12:55 PM,44.6,24.8,46,29.93,10.0,ESE,16.1,21.9,N/A,,Scattered Clouds,120,2013-03-04 18:55:00
1:15 PM,46.4,26.6,46,29.91,10.0,ESE,17.3,21.9,N/A,,Clear,120,2013-03-04 19:15:00
1:35 PM,46.4,26.6,46,29.90,10.0,ESE,12.7,20.7,N/A,,Clear,110,2013-03-04 19:35:00
1:55 PM,46.4,24.8,43,29.88,10.0,ESE,15.0,21.9,N/A,,Clear,110,2013-03-04 19:55:00
2:15 PM,48.2,26.6,43,29.88,10.0,ESE,13.8,-,N/A,,Clear,120,2013-03-04 20:15:00
2:35 PM,48.2,26.6,43,29.88,10.0,ESE,16.1,-,N/A,,Clear,110,2013-03-04 20:35:00
2:55 PM,48.2,26.6,43,29.86,10.0,ESE,15.0,20.7,N/A,,Clear,120,2013-03-04 20:55:00
3:15 PM,48.2,26.6,43,29.86,10.0,ESE,13.8,17.3,N/A,,Clear,110,2013-03-04 21:15:00
3:35 PM,48.2,26.6,43,29.87,10.0,ESE,11.5,18.4,N/A,,Scattered Clouds,110,2013-03-04 21:35:00
3:55 PM,48.2,26.6,43,29.87,10.0,ESE,9.2,20.7,N/A,,Mostly Cloudy,120,2013-03-04 21:55:00
4:15 PM,48.2,26.6,43,29.87,10.0,ESE,12.7,17.3,N/A,,Overcast,110,2013-03-04 22:15:00
4:35 PM,48.2,26.6,43,29.87,10.0,East,11.5,-,N/A,,Overcast,100,2013-03-04 22:35:00
4:55 PM,46.4,26.6,46,29.87,10.0,East,11.5,-,N/A,,Overcast,100,2013-03-04 22:55:00
5:35 PM,46.4,26.6,46,29.87,10.0,East,13.8,19.6,N/A,,Overcast,100,2013-03-04 23:35:00
5:55 PM,46.4,26.6,46,29.88,10.0,East,10.4,19.6,N/A,,Overcast,100,2013-03-04 23:55:00
6:15 PM,44.6,26.6,49,29.88,10.0,East,11.5,-,N/A,,Overcast,100,2013-03-05 00:15:00
6:35 PM,44.6,26.6,49,29.88,10.0,East,10.4,16.1,N/A,,Overcast,100,2013-03-05 00:35:00
6:55 PM,44.6,26.6,49,29.88,10.0,East,10.4,-,N/A,,Overcast,100,2013-03-05 00:55:00
7:15 PM,44.6,26.6,49,29.88,10.0,East,9.2,-,N/A,,Overcast,100,2013-03-05 01:15:00
7:35 PM,44.6,26.6,49,29.88,10.0,ESE,8.1,-,N/A,,Overcast,110,2013-03-05 01:35:00
7:55 PM,44.6,26.6,49,29.88,10.0,East,9.2,-,N/A,,Overcast,100,2013-03-05 01:55:00
8:15 PM,44.6,26.6,49,29.87,10.0,East,8.1,-,N/A,,Overcast,100,2013-03-05 02:15:00
8:35 PM,44.6,26.6,49,29.88,10.0,East,9.2,-,N/A,,Overcast,100,2013-03-05 02:35:00
8:55 PM,44.6,26.6,49,29.87,10.0,ESE,10.4,-,N/A,,Overcast,110,2013-03-05 02:55:00
9:15 PM,44.6,26.6,49,29.86,10.0,ESE,6.9,-,N/A,,Overcast,110,2013-03-05 03:15:00
9:35 PM,44.6,26.6,49,29.86,10.0,ESE,6.9,-,N/A,,Overcast,110,2013-03-05 03:35:00
9:55 PM,44.6,26.6,49,29.86,10.0,ESE,9.2,-,N/A,,Overcast,120,2013-03-05 03:55:00
10:15 PM,46.4,26.6,46,29.85,10.0,ESE,6.9,-,N/A,,Overcast,110,2013-03-05 04:15:00
10:35 PM,46.4,26.6,46,29.85,10.0,ESE,8.1,-,N/A,,Overcast,120,2013-03-05 04:35:00
10:55 PM,46.4,28.4,50,29.84,10.0,East,4.6,-,N/A,,Overcast,100,2013-03-05 04:55:00
11:15 PM,46.4,28.4,50,29.84,10.0,ESE,5.8,-,N/A,,Overcast,110,2013-03-05 05:15:00
11:35 PM,44.6,28.4,53,29.83,10.0,ESE,3.5,-,N/A,,Overcast,110,2013-03-05 05:35:00
11:55 PM,44.6,28.4,53,29.83,10.0,East,5.8,-,N/A,,Overcast,100,2013-03-05 05:55:00